RH
50 49 47 44 37 30 27 27 28 28 29 30 30 34 36 35 34 36 40 41 40 40 37 34 38 41 41 47 54 55 56 60 64 65 65 65 65 65 66 68 71 74
51 50 47 45 41 36 31 29 29 30 31 30 30 36 37 33 34 36 38 40 41 42 38 36 41 44 42 47 54 57 61 66 68 68 69 68 66 67 68 71 74 76
52 51 49 47 44 40 37 34 34 34 33 32 34 40 38 32 33 36 38 40 42 43 40 38 43 43 41 46 55 61 67 73 73 71 70 69 69 70 71 75 76 76
54 52 50 48 46 43 40 38 37 37 35 35 40 43 38 32 34 37 40 43 44 43 40 38 40 40 42 49 58 64 70 76 77 74 72 71 71 72 75 77 75 73
54 53 52 51 49 45 43 41 40 39 39 41 45 44 39 37 38 39 43 45 45 42 38 37 41 42 47 55 62 67 73 78 79 76 74 73 74 74 74 74 73 72
55 54 54 53 51 47 45 44 42 41 44 49 51 47 42 41 41 41 43 45 45 42 37 40 47 49 53 62 68 72 76 79 80 79 76 75 75 73 72 74 75 75
56 56 55 54 51 48 47 46 44 45 48 53 54 51 47 44 42 42 43 45 46 42 40 45 49 50 56 65 70 73 76 80 82 80 78 76 75 72 72 75 76 76
57 57 56 55 52 49 49 48 47 50 52 53 54 55 54 49 44 43 44 46 46 43 44 47 47 49 57 64 69 73 77 80 81 81 80 78 75 73 72 73 75 78
57 57 56 55 53 51 51 50 51 55 56 54 56 61 61 56 49 46 46 47 46 45 47 49 50 53 60 65 68 72 75 78 79 79 79 77 75 74 73 72 74 79
57 58 57 56 55 53 52 52 54 58 59 57 58 64 67 64 55 49 49 49 47 48 50 52 55 57 62 66 68 71 74 75 76 76 76 76 76 75 74 75 77 81
58 58 57 57 56 55 55 54 55 58 59 58 61 68 72 71 63 54 52 52 50 51 53 54 56 57 61 65 67 70 73 73 73 74 75 75 76 76 77 77 78 82
59 58 58 58 56 56 56 57 57 58 59 61 65 70 75 76 69 61 56 54 52 52 51 51 54 57 59 63 67 69 71 71 72 73 73 74 76 76 76 76 79 85
61 60 59 58 57 57 57 58 60 59 60 63 67 72 78 81 75 66 59 56 54 53 51 50 53 56 59 62 66 68 69 70 70 71 72 74 75 74 76 79 80 78
61 61 61 60 59 59 59 59 61 61 62 66 68 73 81 84 79 71 63 59 57 55 53 52 54 57 60 62 65 67 68 69 69 71 73 73 74 77 78 75 73 72
61 61 62 61 60 60 60 61 62 63 65 68 70 76 83 85 81 75 68 63 60 57 56 57 57 58 59 61 63 65 67 68 69 71 72 75 78 79 74 72 78 87
62 62 62 62 61 61 61 62 63 64 67 69 71 77 84 85 81 77 72 67 63 61 59 59 59 59 59 62 65 65 64 67 69 71 74 78 79 76 75 82 90 92
63 63 63 63 63 62 61 62 63 64 66 69 72 78 85 86 81 79 75 70 67 65 62 62 61 60 61 68 74 74 69 67 68 72 77 77 75 78 86 93 92 89
64 64 65 65 65 63 63 63 63 64 66 68 72 79 85 86 82 81 77 72 70 67 64 64 62 61 66 74 80 82 81 77 72 72 76 76 79 88 95 94 92 91
65 65 66 66 67 66 65 64 64 66 66 68 72 78 84 86 84 83 80 77 74 68 66 66 63 64 72 78 80 82 86 87 84 81 80 82 87 94 96 92 89 88
67 67 67 67 68 68 67 66 66 67 67 68 72 78 85 87 85 84 82 79 75 70 68 69 65 64 72 80 83 83 83 87 93 92 90 89 91 94 93 88 86 87
69 69 68 68 69 69 69 68 67 68 68 69 72 78 85 88 85 84 82 79 77 74 72 71 66 65 72 80 83 83 83 86 92 95 94 92 91 91 89 85 84 87
71 70 69 69 70 70 70 70 68 68 68 70 74 80 86 88 85 84 83 81 80 77 74 72 67 68 76 80 80 82 84 87 92 95 95 93 91 90 86 83 84 86
73 71 70 70 70 71 72 71 70 70 69 71 77 84 89 89 86 85 85 84 82 78 75 72 67 70 78 81 81 83 84 87 93 94 93 93 91 88 84 82 84 86
75 73 71 70 71 72 72 72 72 72 72 74 79 86 91 89 87 87 86 86 83 78 76 73 67 67 75 82 84 82 83 87 91 92 94 94 90 86 83 84 86 89
77 74 72 71 71 72 72 73 74 74 75 77 81 87 91 90 88 87 86 85 83 79 77 76 70 65 70 82 85 82 83 87 90 95 96 91 87 86 85 87 90 89
79 76 74 72 72 72 72 73 74 75 77 80 84 88 91 90 88 86 85 83 81 79 77 76 72 65 65 77 84 82 84 89 93 97 95 88 87 87 86 89 90 89
Wind_Speed
34 33 34 35 35 34 34 34 33 32 32 32 32 33 33 34 34 33 32 29 26 24 21 20 20 19 18 19 21 21 20 19 19 19 17 16 16 17 17 16 15 14
34 33 33 33 34 34 34 34 34 33 32 32 32 32 31 33 33 32 32 29 27 25 22 21 21 21 20 21 21 20 20 19 19 19 18 17 17 17 17 16 15 15
33 33 33 34 35 35 35 34 33 32 31 31 31 31 31 32 33 32 32 30 29 27 24 23 23 22 21 21 21 20 20 19 19 18 18 17 17 17 16 16 15 15
33 34 34 35 35 35 34 32 31 31 30 29 29 30 32 32 32 33 32 31 30 27 25 24 24 22 21 21 20 20 21 20 19 18 18 18 17 16 16 15 15 15
32 33 34 34 34 34 33 32 31 30 29 28 29 30 31 32 33 33 33 32 30 27 26 25 24 22 21 20 21 21 22 22 21 20 19 19 18 17 16 16 15 16
30 32 33 33 34 33 32 31 30 28 28 29 30 31 32 33 33 34 33 32 30 28 27 26 24 22 21 21 22 22 22 23 22 21 21 20 20 18 17 17 16 16
29 31 32 32 32 32 32 30 29 28 28 29 31 33 34 34 34 34 33 32 30 29 27 27 25 23 22 22 23 23 23 23 22 22 22 21 20 19 18 18 17 17
29 30 30 31 31 31 31 29 29 29 29 32 34 35 35 35 35 34 33 31 30 29 28 27 26 24 24 24 24 24 24 23 23 23 23 22 21 20 19 18 17 18
27 28 29 30 31 31 31 30 30 30 31 34 36 35 34 35 35 33 33 31 30 29 28 27 26 25 25 25 25 25 24 24 23 23 24 23 22 21 20 19 19 19
26 28 28 30 31 31 31 30 31 30 31 34 34 33 33 34 34 33 32 31 31 30 29 28 27 26 26 26 26 26 25 25 24 24 24 24 23 22 21 20 20 20
25 27 28 29 31 32 31 31 31 30 31 35 34 31 31 33 33 33 32 31 31 30 29 28 28 27 27 27 27 26 26 25 25 25 25 25 24 23 22 21 21 22
25 27 28 30 31 31 31 31 31 30 32 34 34 32 31 31 32 32 32 31 31 30 30 29 28 27 27 27 27 26 25 25 25 25 26 25 25 25 24 23 23 23
25 27 29 30 31 31 31 31 30 31 32 33 33 31 30 31 31 31 31 31 30 30 30 30 28 27 27 27 26 26 26 25 25 25 25 25 25 25 24 23 23 24
27 27 28 30 30 30 30 30 30 30 31 31 32 31 31 32 32 32 31 30 29 30 30 29 28 27 27 26 26 26 26 26 26 25 25 25 24 24 23 23 24 23
27 27 27 28 28 28 29 30 30 30 29 29 31 32 31 32 31 31 31 31 30 30 29 28 27 28 28 27 27 27 26 26 25 25 24 24 23 23 22 22 22 23
27 27 26 26 27 28 30 30 29 29 29 29 30 31 31 30 30 30 31 31 31 31 30 28 28 28 28 27 27 27 27 26 25 24 24 23 23 22 21 21 21 23
26 26 26 26 27 28 29 29 29 28 29 29 29 29 30 29 29 31 32 32 32 32 30 28 28 29 27 25 24 25 26 27 26 25 23 22 21 20 20 21 21 21
26 26 26 26 27 28 28 29 28 28 28 28 27 28 30 30 31 32 32 32 32 32 30 29 29 28 26 24 24 24 24 25 25 25 23 21 19 20 20 20 20 20
26 25 26 26 27 27 28 27 26 27 28 27 27 29 30 32 33 32 32 32 31 32 32 31 30 28 25 23 24 24 23 23 24 24 23 20 19 19 19 20 19 20
26 25 26 27 27 26 26 25 26 27 27 26 27 28 28 31 33 33 32 32 31 32 33 31 29 28 26 24 24 24 24 23 23 23 22 20 19 19 20 20 19 20
26 25 26 26 26 25 25 25 26 26 25 25 26 27 29 32 34 33 33 32 31 32 32 31 30 28 26 25 25 24 24 23 23 23 22 21 20 20 20 20 19 19
27 26 25 25 24 24 24 24 25 25 25 25 25 26 28 31 33 33 33 32 32 32 33 33 32 28 25 25 26 24 24 24 23 23 22 22 21 20 20 20 19 19
28 25 24 24 23 23 24 25 25 24 24 24 24 25 29 31 32 32 32 32 32 33 34 35 35 30 26 25 26 25 24 24 23 23 22 21 21 20 18 18 18 17
29 25 24 23 23 24 25 25 24 23 24 24 24 26 29 31 32 30 30 31 33 34 34 35 35 33 27 25 25 25 25 25 24 23 22 21 20 18 17 17 17 16
29 26 24 23 23 25 26 25 24 23 23 24 25 25 26 27 27 27 28 30 32 33 32 31 33 34 29 25 25 25 25 25 24 22 21 21 19 18 17 16 16 16
30 27 25 24 24 25 25 24 23 22 21 22 24 24 24 24 24 25 26 26 28 30 30 29 31 33 30 26 25 25 25 24 24 23 22 20 19 17 16 15 16 16
Wind_Direction
225 224 222 220 218 216 212 209 209 209 209 209 209 211 213 213 212 212 212 214 214 216 218 220 221 221 223 225 227 230 231 230 229 227 224 226 231 234 237 240 241 245
227 226 224 221 221 221 219 216 215 214 214 214 213 214 215 214 213 213 213 213 213 215 218 219 219 220 223 225 228 231 230 231 232 227 223 225 230 234 237 238 240 245
229 227 224 223 223 223 222 221 219 218 217 216 215 216 216 215 215 214 214 214 212 213 215 217 218 220 224 226 228 229 228 230 230 224 224 228 230 233 236 237 240 244
230 228 226 225 226 225 224 221 220 219 217 215 216 218 218 217 217 215 215 213 212 212 214 216 219 220 222 224 226 228 227 228 228 225 228 229 228 232 235 236 242 246
233 230 228 227 228 227 225 222 222 219 215 213 216 217 217 217 216 214 212 211 212 213 214 216 219 219 220 222 224 225 226 227 228 227 229 229 229 232 236 238 240 244
236 231 229 229 229 227 226 224 223 220 215 214 214 214 214 214 213 212 211 211 212 214 214 215 216 217 217 219 221 223 225 227 228 227 228 229 231 234 237 237 239 245
238 234 231 230 229 227 227 226 224 221 217 216 215 214 214 213 213 213 213 213 214 214 213 212 213 214 215 217 220 223 226 228 228 229 229 230 232 234 234 236 242 249
242 236 232 229 228 227 227 226 224 222 218 218 218 216 215 215 214 214 214 214 215 214 213 212 213 213 213 215 218 221 224 227 229 229 230 231 234 235 236 239 246 251
243 237 233 229 228 227 227 225 224 223 220 220 221 218 216 217 216 215 215 214 214 214 213 214 214 212 213 215 218 220 222 226 228 229 231 233 236 239 241 243 246 249
244 239 234 231 229 229 228 227 226 224 222 222 222 219 218 219 219 218 216 214 214 214 214 214 214 212 213 216 218 220 221 224 228 230 232 233 237 241 244 244 245 248
247 242 237 234 233 232 230 229 227 225 223 222 222 219 219 221 221 219 217 214 213 214 214 214 215 214 214 217 219 220 221 225 229 231 234 236 239 243 247 249 249 251
251 245 241 239 237 235 232 231 229 226 225 224 221 219 219 220 221 220 219 218 216 215 215 216 216 216 217 218 219 220 222 226 230 233 237 240 242 246 251 253 253 255
256 251 247 244 241 238 235 232 230 229 227 226 222 218 217 219 222 222 222 222 220 219 218 218 218 218 219 220 220 222 223 226 230 234 238 243 246 248 251 254 259 262
263 258 253 249 244 241 237 234 233 231 230 228 223 220 218 219 220 221 222 223 224 223 222 221 220 220 220 221 221 223 224 226 229 233 238 243 246 248 251 257 262 263
269 263 257 252 246 242 238 235 234 231 230 228 223 220 220 219 219 220 221 222 224 226 226 223 222 222 221 221 222 223 224 226 229 232 237 242 245 250 255 257 258 260
273 266 260 253 246 242 239 237 234 231 229 227 223 221 220 219 219 219 219 221 222 223 225 224 224 225 223 223 223 224 225 226 228 231 234 239 246 251 255 254 255 261
275 268 261 253 246 243 240 237 234 231 229 227 224 221 220 218 218 219 219 221 222 222 222 222 224 226 224 222 221 223 226 227 227 229 231 236 244 248 251 254 258 262
278 269 262 255 248 243 240 237 234 231 228 226 223 220 218 216 217 219 220 221 222 223 223 222 224 226 223 221 221 221 224 226 226 227 228 233 240 244 248 255 260 265
282 271 263 257 250 245 241 237 233 230 228 225 222 219 217 215 217 219 220 222 223 223 224 224 226 226 222 221 223 223 222 223 225 225 226 230 237 243 250 257 262 268
286 274 265 259 253 246 240 235 232 231 229 226 223 218 214 213 216 218 219 221 222 223 224 224 225 226 224 221 223 224 224 223 223 223 226 231 237 244 252 260 264 269
288 277 267 261 254 245 239 235 233 232 230 227 223 218 214 214 215 217 219 220 222 223 223 224 225 225 222 222 223 224 224 224 223 224 228 232 239 246 253 260 266 270
288 278 268 263 255 243 236 234 233 232 230 226 223 220 217 216 215 217 220 221 222 223 223 224 226 224 220 221 223 223 224 224 223 225 228 232 239 245 251 259 267 272
289 279 269 264 254 242 236 234 233 232 229 225 222 219 217 215 216 219 220 221 222 222 222 224 226 225 220 219 222 223 223 223 223 224 228 232 238 243 250 259 266 271
290 282 272 265 256 245 239 236 233 231 228 224 221 219 218 217 217 219 220 221 222 223 222 223 226 226 220 217 221 222 221 222 223 223 227 233 238 242 249 258 264 270
293 286 275 266 259 252 246 239 234 232 228 224 222 221 221 220 219 219 222 223 224 224 223 222 225 226 221 217 221 222 221 223 222 221 226 233 236 242 248 254 263 271
296 289 278 268 264 260 252 243 237 232 226 221 221 221 221 220 219 219 222 224 224 225 224 222 223 225 222 218 220 222 221 222 221 220 225 230 233 240 246 252 264 273